Total_Precipitation_Accumulation
0.27 0.29 0.32 0.38 0.41 0.44 0.49 0.49 0.48 0.52 0.56 0.55 0.50 0.48 0.51 0.59 0.69 0.77 0.78 0.80 0.85 0.85 0.86 0.88 0.87 0.87 0.91 0.90 0.92 0.92 0.97 1.15 1.15 0.55 0.37 0.43 0.56 0.61 0.61 0.59 0.58 0.62 0.64
0.25 0.28 0.30 0.37 0.43 0.48 0.52 0.56 0.58 0.59 0.61 0.64 0.63 0.59 0.53 0.54 0.63 0.72 0.76 0.79 0.84 0.86 0.88 0.94 0.94 0.95 0.98 0.99 1.04 1.04 1.02 1.05 1.16 0.85 0.50 0.48 0.56 0.62 0.68 0.68 0.62 0.62 0.63
0.26 0.26 0.28 0.33 0.43 0.52 0.58 0.60 0.61 0.63 0.67 0.69 0.71 0.71 0.66 0.66 0.71 0.75 0.77 0.79 0.81 0.81 0.83 0.90 0.95 1.02 1.06 1.04 1.06 1.06 1.01 0.95 0.99 0.98 0.69 0.54 0.59 0.65 0.72 0.75 0.74 0.74 0.71
0.32 0.31 0.36 0.43 0.47 0.53 0.60 0.63 0.64 0.67 0.70 0.74 0.76 0.78 0.79 0.84 0.96 0.99 0.89 0.88 0.83 0.80 0.80 0.84 0.92 1.04 1.13 1.20 1.28 1.19 1.12 1.17 1.17 1.17 0.96 0.75 0.69 0.71 0.87 0.92 0.90 0.84 0.80
0.47 0.48 0.47 0.49 0.52 0.50 0.53 0.58 0.62 0.67 0.70 0.71 0.71 0.74 0.79 0.92 1.22 1.25 1.07 0.97 0.91 0.85 0.81 0.81 0.85 1.03 1.25 1.46 1.59 1.54 1.51 1.58 1.53 1.50 1.31 1.07 0.91 0.91 0.99 0.98 1.02 0.92 0.89
0.55 0.58 0.55 0.51 0.50 0.53 0.53 0.54 0.57 0.62 0.64 0.64 0.64 0.65 0.74 0.92 1.33 1.38 1.16 0.95 0.91 0.91 0.89 0.83 0.81 0.90 1.02 1.20 1.43 1.52 1.63 1.76 1.83 1.79 1.64 1.41 1.08 0.96 1.02 1.19 1.33 1.34 1.18
0.55 0.61 0.63 0.56 0.51 0.52 0.52 0.51 0.50 0.51 0.54 0.55 0.56 0.56 0.58 0.76 1.19 1.28 1.13 0.88 0.79 0.80 0.80 0.75 0.75 0.75 0.82 0.79 0.94 1.04 1.14 1.34 1.59 1.77 1.86 1.52 1.22 1.10 1.30 1.53 1.57 1.55 1.30
0.58 0.56 0.57 0.52 0.46 0.46 0.50 0.48 0.44 0.43 0.47 0.49 0.50 0.49 0.46 0.52 0.91 1.18 1.07 0.77 0.70 0.71 0.71 0.73 0.75 0.73 0.73 0.82 0.90 0.94 0.88 0.91 1.14 1.40 1.55 1.41 1.32 1.34 1.57 1.87 2.02 2.07 1.71
0.52 0.49 0.48 0.44 0.42 0.46 0.49 0.45 0.41 0.40 0.41 0.44 0.45 0.48 0.46 0.45 0.71 1.10 1.14 0.79 0.75 0.71 0.72 0.84 0.89 0.80 0.85 1.05 1.18 1.14 0.95 0.81 0.89 1.22 1.50 1.55 1.60 1.80 2.05 2.44 2.72 2.81 2.48
0.41 0.42 0.47 0.43 0.39 0.43 0.48 0.45 0.43 0.41 0.42 0.44 0.46 0.53 0.53 0.47 0.62 1.04 1.29 0.91 0.82 0.73 0.73 0.86 1.13 1.10 1.10 1.19 1.25 1.28 1.22 0.93 0.84 0.90 1.01 1.13 1.17 1.26 1.64 2.01 2.31 2.61 2.57
0.31 0.34 0.43 0.46 0.43 0.42 0.43 0.44 0.43 0.43 0.44 0.46 0.48 0.52 0.55 0.51 0.55 0.85 1.32 1.21 0.99 0.89 0.86 0.92 1.06 1.16 1.17 1.20 1.27 1.25 1.29 1.24 1.18 1.16 1.09 1.03 1.06 1.18 1.35 1.62 1.89 2.21 2.46
0.26 0.29 0.34 0.42 0.42 0.41 0.42 0.42 0.41 0.44 0.48 0.49 0.50 0.52 0.54 0.55 0.58 0.75 1.11 1.33 1.25 1.05 0.98 0.89 0.97 1.12 1.18 1.22 1.17 1.19 1.28 1.33 1.26 1.23 1.17 1.08 1.05 1.11 1.17 1.33 1.59 1.76 1.92
0.23 0.27 0.32 0.37 0.37 0.38 0.40 0.41 0.41 0.43 0.49 0.54 0.55 0.57 0.56 0.58 0.63 0.77 0.89 1.02 1.15 1.07 1.04 1.19 1.16 1.13 1.09 1.03 1.03 1.09 1.11 1.08 1.13 1.12 1.02 0.91 0.86 0.91 1.02 1.19 1.37 1.55 1.69
0.25 0.30 0.35 0.38 0.40 0.39 0.38 0.38 0.40 0.46 0.60 0.69 0.69 0.67 0.62 0.60 0.69 0.89 0.95 0.92 1.01 1.05 1.05 1.14 1.15 1.04 0.93 0.89 0.92 0.93 0.92 0.99 1.10 1.10 0.98 0.87 0.82 0.89 1.01 1.11 1.29 1.44 1.69
0.30 0.34 0.39 0.42 0.43 0.43 0.40 0.40 0.45 0.48 0.72 0.98 0.95 0.94 0.95 0.93 1.00 1.31 1.33 1.22 1.23 1.26 1.27 1.25 1.14 1.00 0.91 0.83 0.79 0.76 0.78 0.90 1.02 1.01 1.02 1.01 0.97 0.99 1.02 1.05 1.23 1.39 1.59
0.32 0.35 0.40 0.46 0.48 0.47 0.45 0.45 0.47 0.50 0.59 0.68 0.74 0.88 0.89 1.04 1.19 1.19 1.17 1.17 1.21 1.26 1.29 1.21 1.02 0.90 0.86 0.81 0.80 0.80 0.78 0.81 0.86 0.93 1.00 1.02 1.04 1.06 1.05 1.05 1.21 1.38 1.45
0.36 0.39 0.42 0.44 0.47 0.49 0.51 0.51 0.51 0.48 0.49 0.53 0.58 0.66 0.80 0.98 1.04 1.04 1.09 1.04 1.04 1.06 1.06 0.95 0.86 0.84 0.81 0.79 0.80 0.81 0.78 0.74 0.79 0.91 0.99 1.02 1.06 1.10 1.11 1.11 1.16 1.27 1.32
0.38 0.42 0.46 0.47 0.49 0.50 0.52 0.54 0.54 0.53 0.54 0.54 0.53 0.57 0.67 0.80 0.90 0.94 1.00 0.97 0.92 0.85 0.84 0.85 0.83 0.81 0.79 0.79 0.80 0.81 0.79 0.77 0.81 0.87 0.92 0.95 1.01 1.10 1.12 1.06 1.07 1.19 1.28
0.35 0.38 0.42 0.46 0.48 0.50 0.53 0.55 0.55 0.54 0.55 0.56 0.56 0.59 0.65 0.70 0.76 0.84 0.85 0.81 0.82 0.78 0.75 0.77 0.77 0.80 0.82 0.80 0.79 0.78 0.81 0.83 0.80 0.83 0.85 0.86 0.91 1.02 1.05 0.97 1.00 1.10 1.30
0.33 0.40 0.46 0.47 0.49 0.50 0.53 0.56 0.58 0.60 0.59 0.58 0.61 0.66 0.74 0.80 0.81 0.79 0.76 0.75 0.77 0.76 0.74 0.77 0.75 0.76 0.81 0.82 0.81 0.80 0.82 0.81 0.78 0.79 0.80 0.81 0.85 0.96 1.00 0.95 1.01 1.12 1.20
0.37 0.41 0.47 0.47 0.49 0.52 0.56 0.61 0.63 0.67 0.68 0.65 0.62 0.66 0.95 1.09 0.95 0.79 0.76 0.78 0.83 0.86 0.83 0.81 0.75 0.71 0.73 0.78 0.82 0.81 0.81 0.76 0.73 0.79 0.82 0.82 0.85 0.93 0.93 0.98 1.02 1.07 1.16
0.42 0.46 0.49 0.50 0.51 0.55 0.61 0.63 0.65 0.68 0.68 0.66 0.62 0.61 0.71 0.73 0.72 0.71 0.72 0.77 0.83 0.88 0.90 0.91 0.83 0.72 0.72 0.81 0.88 0.90 0.83 0.73 0.70 0.79 0.86 0.85 0.87 0.92 0.95 1.00 1.02 1.09 1.16
0.49 0.52 0.52 0.51 0.53 0.60 0.61 0.57 0.60 0.64 0.66 0.63 0.61 0.61 0.63 0.67 0.69 0.73 0.77 0.79 0.85 0.88 0.87 0.86 0.84 0.72 0.66 0.72 0.81 0.92 0.95 0.84 0.80 0.92 1.04 1.01 0.96 0.96 0.99 1.02 1.02 1.07 1.11
0.55 0.57 0.58 0.56 0.57 0.58 0.58 0.58 0.59 0.61 0.64 0.65 0.64 0.64 0.67 0.68 0.69 0.73 0.76 0.80 0.84 0.85 0.84 0.83 0.79 0.72 0.67 0.70 0.73 0.76 0.82 0.91 1.11 1.25 1.23 1.22 1.11 1.00 1.00 1.04 1.00 1.00 1.05
0.56 0.58 0.60 0.61 0.62 0.63 0.63 0.60 0.59 0.62 0.64 0.66 0.66 0.66 0.67 0.67 0.68 0.72 0.76 0.80 0.84 0.84 0.80 0.78 0.76 0.73 0.69 0.66 0.66 0.69 0.79 0.97 1.20 1.53 1.74 1.67 1.38 1.12 1.07 1.07 1.02 1.00 1.05
0.55 0.54 0.56 0.59 0.63 0.66 0.70 0.69 0.66 0.66 0.70 0.69 0.68 0.70 0.73 0.74 0.74 0.76 0.80 0.86 0.91 0.88 0.82 0.78 0.73 0.69 0.67 0.67 0.66 0.70 0.85 1.06 1.28 1.55 1.97 2.13 1.73 1.30 1.15 1.16 1.08 1.06 1.11